Wind_Speed
28 28 29 29 30 31 31 32 33 33 34 35 36 36 37 38 39 39 40 40 41 42 43 43 44 44 45 45 45 46 46 46 46 46 46 46 45 45 45 45 45 44 44
28 28 29 30 30 31 32 32 34 35 36 37 38 39 40 40 41 42 43 44 45 46 47 48 48 49 49 50 50 50 50 50 50 50 50 50 49 49 49 49 48 48 48
28 29 29 30 31 32 32 33 34 35 36 37 38 40 41 42 43 44 44 45 46 47 49 50 51 52 52 53 53 54 54 54 54 54 54 54 53 53 53 52 52 52 51
30 30 30 31 32 32 33 34 35 36 36 37 38 39 40 40 41 43 44 45 46 47 48 50 51 52 53 54 55 55 56 56 57 57 57 57 57 57 56 56 55 55 54
31 31 31 31 32 32 33 33 34 35 36 37 38 39 39 40 41 43 44 45 46 47 48 49 51 52 54 54 55 56 57 58 58 58 59 59 59 59 59 59 58 58 57
31 31 31 32 32 32 33 34 35 36 36 38 38 39 40 41 42 43 44 45 46 48 49 50 51 53 54 56 57 58 59 59 60 60 61 61 61 62 61 61 61 61 60
30 30 30 31 31 32 33 34 35 35 36 38 39 39 40 41 42 44 45 46 48 49 51 52 54 55 56 58 59 60 61 62 63 63 64 64 64 64 64 64 64 64 64
29 29 30 31 31 32 33 35 36 36 37 39 41 41 41 42 44 46 47 48 50 52 53 55 57 58 60 61 62 64 65 66 67 67 68 68 68 68 68 68 68 68 68
29 30 31 31 32 33 34 36 37 38 40 42 44 46 47 47 47 48 50 52 54 55 57 58 60 62 63 65 66 68 69 70 71 72 73 73 73 73 73 73 73 72 72
31 32 33 34 35 36 38 39 41 42 44 45 48 50 52 54 55 54 53 55 58 60 61 63 64 65 67 68 70 71 73 75 76 77 78 78 79 79 79 79 78 78 77
33 35 36 37 38 40 41 43 45 47 49 50 52 54 56 58 60 62 61 60 61 63 65 67 69 70 71 73 74 76 78 79 81 82 83 84 84 84 85 84 84 83 82
37 38 39 40 42 44 46 47 49 51 53 55 57 59 60 62 63 66 67 67 67 67 68 70 72 75 76 78 79 80 82 83 84 86 87 88 89 89 89 89 89 88 88
40 41 42 44 46 48 50 52 53 55 57 59 60 62 64 66 68 69 71 72 72 72 73 74 76 79 81 83 84 85 86 87 88 89 90 90 91 91 91 92 92 92 91
43 44 46 48 50 52 54 55 57 59 60 62 64 66 67 69 71 73 75 77 78 77 77 78 80 82 84 86 88 89 89 89 88 88 88 89 89 90 90 91 91 92 92
46 48 50 51 53 55 57 58 60 62 64 65 67 69 70 72 74 76 78 81 83 84 82 81 83 84 86 87 88 88 88 87 85 84 83 84 85 86 87 87 88 89 90
49 51 52 54 55 57 59 61 63 65 67 68 70 72 73 75 77 79 80 82 85 87 87 84 84 84 85 84 82 81 81 80 79 77 77 77 78 79 80 81 82 83 84
51 53 55 56 58 60 62 64 66 68 70 71 73 75 76 78 79 81 83 84 85 86 88 83 82 80 79 77 74 73 72 71 71 71 70 70 70 71 71 72 73 74 76
54 55 57 59 61 63 65 67 69 70 72 74 75 77 78 80 81 83 84 84 84 83 84 81 76 73 70 69 67 66 65 64 63 63 63 63 63 63 63 63 64 64 65
56 58 60 62 64 66 68 69 71 73 75 76 78 79 80 82 83 83 83 82 80 79 77 75 70 66 63 62 61 60 58 57 57 56 57 56 56 57 58 58 58 58 59
59 60 62 64 66 68 70 72 74 76 77 79 80 81 82 82 82 81 79 77 75 73 70 67 63 59 57 56 55 54 53 52 52 52 53 53 53 53 53 53 53 54 54
61 63 65 66 69 71 73 75 76 78 79 80 80 81 81 80 78 77 75 71 68 65 62 60 57 54 52 51 50 50 50 49 48 49 49 49 50 49 49 50 50 50 50
63 65 67 69 71 73 75 77 79 80 81 81 81 80 78 76 74 71 68 65 62 60 57 55 53 50 48 48 48 48 48 47 46 46 47 46 47 46 46 47 47 47 48
65 67 70 71 73 75 77 79 81 81 81 81 80 78 75 72 68 65 61 58 56 55 53 52 50 47 46 45 46 46 46 46 44 43 44 43 43 42 42 43 43 44 44
68 70 72 73 75 77 79 81 81 81 80 79 77 74 70 65 62 59 56 53 51 49 49 49 47 45 45 44 45 45 44 43 42 41 42 41 39 40 40 40 40 41 41
70 72 74 76 77 79 80 81 81 80 78 75 72 68 64 60 56 54 52 49 47 45 46 45 45 44 43 43 44 44 43 43 40 38 39 39 38 38 38 38 39 40 40
72 74 76 78 79 80 80 79 79 78 75 71 66 61 57 55 51 50 48 46 44 43 43 43 43 42 42 42 42 43 42 41 40 37 36 37 37 37 36 36 37 38 38
Wind_Direction
282 281 279 278 276 275 274 273 272 271 270 269 269 268 268 268 268 268 267 267 267 267 268 268 268 268 269 269 269 270 270 271 271 272 272 273 273 273 274 275 275 276 276
284 283 281 280 278 277 276 276 275 274 273 272 271 271 271 270 270 269 269 269 269 269 269 269 269 270 270 270 270 270 270 271 271 271 271 272 272 272 272 273 274 274 274
285 284 283 282 280 279 278 277 277 276 275 275 274 274 273 273 273 272 272 272 272 272 272 272 271 271 271 271 271 271 271 270 270 271 271 271 271 271 271 272 272 272 272
285 284 283 282 282 281 280 279 279 278 278 277 277 277 276 276 276 275 275 275 274 274 274 274 274 273 273 273 272 272 272 271 271 270 270 270 270 270 271 271 271 271 271
285 284 284 283 283 282 282 281 281 280 280 279 278 278 278 278 277 277 276 276 276 275 275 274 274 274 274 274 274 273 273 272 272 271 271 271 270 270 270 270 270 270 270
285 284 284 283 284 283 283 282 282 282 282 282 281 281 280 280 280 279 278 278 278 277 277 276 275 275 275 275 274 274 273 273 272 272 271 270 270 270 269 269 269 269 268
286 286 286 286 285 285 285 284 284 284 284 284 283 283 282 283 282 281 281 280 279 279 278 278 277 276 276 275 275 275 274 273 273 272 271 270 270 269 269 268 268 267 267
287 287 287 287 287 287 287 287 286 287 287 287 286 285 283 282 283 283 282 281 280 280 279 279 279 278 277 276 275 275 274 273 273 272 271 270 269 269 268 268 267 267 266
287 287 288 288 288 288 288 288 288 289 289 289 289 288 287 285 282 282 283 282 281 280 280 279 278 278 277 277 276 275 274 273 272 271 271 270 269 268 268 267 266 266 265
288 288 289 289 289 289 289 289 290 290 290 290 290 290 290 290 288 285 283 283 283 282 281 280 279 278 277 277 276 275 274 274 273 272 271 270 269 268 267 266 266 265 264
288 289 289 289 290 290 290 291 291 292 292 292 292 292 292 291 291 290 287 285 284 284 283 282 281 280 279 277 276 275 274 273 273 272 271 270 269 267 266 265 265 264 263
288 289 290 291 291 292 292 293 293 294 294 294 294 294 293 293 292 291 290 289 287 285 285 284 283 282 281 279 278 276 275 274 273 272 271 270 269 267 266 265 264 263 262
290 290 291 292 292 293 293 293 294 295 295 295 295 295 294 294 293 292 291 290 289 288 287 286 286 284 283 282 280 278 277 275 274 272 271 270 269 267 266 264 263 262 261
291 291 292 293 293 294 294 294 295 295 295 296 296 296 296 295 295 294 293 292 290 289 288 288 287 286 285 283 282 280 278 277 275 273 272 270 269 267 266 264 263 261 260
290 291 292 293 294 294 295 295 296 296 296 297 297 297 297 296 296 295 294 294 293 291 289 289 288 287 286 284 283 282 280 278 276 274 273 271 269 268 266 265 263 261 259
291 292 293 294 295 295 296 296 297 297 297 298 298 298 298 297 297 296 296 295 294 293 292 291 290 289 287 285 284 282 281 279 278 276 275 273 271 269 267 265 264 262 260
293 294 294 295 296 297 298 298 298 299 299 300 300 300 300 299 299 298 297 297 296 295 294 293 291 290 288 286 284 282 281 280 279 278 277 275 273 271 269 267 265 263 261
294 295 296 297 298 299 300 300 300 301 301 302 302 301 301 301 300 300 299 298 297 296 295 294 292 290 288 286 284 282 282 281 280 279 278 276 275 272 270 268 266 264 262
296 297 299 300 300 301 302 302 302 303 303 303 303 303 303 302 301 301 300 299 297 296 295 294 293 290 288 286 284 283 282 282 281 280 279 278 277 275 271 269 266 264 262
298 299 300 301 302 303 303 303 304 304 305 305 305 305 304 303 302 301 300 298 297 296 294 293 293 291 288 286 285 283 282 282 282 281 280 279 278 276 272 269 266 264 262
300 301 302 303 304 304 305 305 305 305 306 306 306 305 304 303 302 300 299 298 296 295 294 292 292 290 288 286 284 284 283 282 282 282 281 281 279 277 273 269 266 264 261
302 303 303 304 305 306 306 306 306 307 307 307 306 305 304 303 301 300 298 297 296 295 294 292 291 290 288 286 285 284 284 283 282 281 281 281 280 277 273 270 266 264 262
303 304 305 305 306 307 307 307 308 308 308 307 307 306 304 302 300 299 297 296 295 294 294 293 292 291 289 288 287 286 286 285 284 283 281 280 278 276 273 269 266 264 263
304 305 306 307 307 308 308 308 308 308 308 308 307 305 304 302 300 298 296 295 294 294 293 293 292 292 291 290 289 288 287 286 285 284 283 281 278 274 272 269 266 264 262
305 306 307 308 309 309 309 309 309 308 308 307 306 305 303 301 299 298 297 296 295 294 293 292 292 291 291 290 290 289 288 287 286 284 282 281 279 276 272 269 266 264 262
307 308 309 309 310 310 310 310 309 309 308 307 306 304 302 301 299 298 297 297 296 295 294 293 292 291 291 290 289 289 288 287 287 286 283 281 279 277 274 270 266 263 261
Height
5825 5825 5824 5823 5823 5822 5822 5822 5821 5821 5821 5820 5820 5820 5820 5820 5820 5820 5819 5819 5818 5818 5817 5817 5816 5816 5815 5815 5815 5814 5814 5813 5813 5813 5812 5812 5812 5811 5811 5811 5810 5810 5810
5819 5818 5817 5817 5816 5815 5815 5814 5814 5813 5813 5812 5812 5812 5811 5811 5811 5811 5810 5810 5809 5808 5807 5807 5806 5805 5805 5804 5804 5803 5803 5803 5802 5802 5801 5801 5801 5801 5800 5800 5800 5800 5799
5812 5811 5810 5810 5809 5808 5807 5806 5806 5805 5805 5804 5803 5803 5802 5802 5802 5801 5801 5800 5799 5798 5797 5796 5795 5794 5793 5793 5792 5792 5791 5791 5790 5790 5789 5789 5789 5789 5789 5788 5788 5788 5788
5806 5805 5803 5802 5801 5800 5799 5798 5797 5797 5796 5795 5795 5794 5794 5793 5792 5791 5791 5790 5789 5788 5786 5785 5783 5782 5781 5781 5780 5779 5778 5778 5777 5777 5776 5776 5776 5776 5776 5776 5776 5776 5776
5798 5797 5796 5794 5793 5792 5791 5790 5789 5788 5787 5786 5785 5785 5784 5783 5782 5781 5780 5778 5777 5776 5775 5773 5772 5770 5768 5767 5766 5765 5764 5764 5763 5763 5763 5762 5762 5762 5762 5762 5762 5762 5762
5791 5790 5788 5787 5786 5785 5783 5782 5781 5780 5779 5777 5776 5776 5775 5773 5772 5770 5769 5768 5766 5764 5763 5761 5760 5758 5756 5754 5752 5751 5750 5749 5748 5748 5748 5747 5747 5747 5747 5747 5747 5748 5748
5784 5782 5781 5780 5778 5777 5775 5774 5772 5771 5769 5767 5766 5766 5765 5763 5761 5759 5758 5756 5754 5752 5750 5748 5746 5744 5742 5740 5737 5735 5734 5733 5732 5731 5731 5731 5731 5731 5731 5731 5731 5732 5732
5777 5775 5774 5772 5771 5769 5767 5765 5763 5762 5760 5757 5755 5754 5754 5755 5751 5748 5746 5744 5742 5739 5737 5734 5731 5729 5727 5724 5722 5719 5717 5715 5714 5713 5713 5712 5712 5713 5713 5714 5714 5715 5716
5770 5768 5767 5765 5763 5761 5759 5757 5754 5752 5750 5748 5744 5741 5739 5739 5739 5738 5734 5730 5727 5725 5723 5720 5716 5713 5710 5707 5705 5702 5699 5697 5695 5693 5693 5692 5692 5693 5693 5694 5695 5696 5697
5763 5761 5759 5757 5755 5752 5750 5747 5745 5742 5739 5737 5733 5729 5726 5722 5720 5720 5722 5717 5712 5709 5705 5702 5699 5696 5692 5689 5686 5682 5679 5676 5674 5672 5671 5670 5670 5671 5671 5672 5673 5675 5677
5755 5753 5750 5748 5746 5743 5740 5737 5734 5731 5727 5724 5720 5716 5712 5707 5702 5699 5699 5700 5696 5692 5687 5683 5679 5675 5672 5668 5665 5661 5657 5654 5651 5649 5647 5646 5646 5646 5647 5648 5650 5652 5654
5747 5744 5741 5738 5735 5732 5729 5726 5722 5718 5714 5710 5705 5701 5696 5692 5687 5681 5677 5676 5674 5672 5668 5663 5658 5653 5648 5644 5640 5637 5633 5629 5626 5623 5621 5620 5619 5620 5620 5622 5624 5626 5629
5737 5734 5731 5728 5725 5721 5717 5713 5709 5705 5700 5695 5690 5685 5679 5674 5668 5662 5657 5653 5651 5650 5645 5641 5634 5628 5622 5617 5613 5609 5606 5602 5599 5596 5593 5591 5590 5591 5592 5593 5595 5598 5601
5727 5724 5720 5717 5713 5709 5704 5700 5696 5690 5685 5680 5674 5668 5662 5656 5649 5642 5635 5629 5625 5625 5622 5618 5609 5601 5594 5589 5584 5579 5576 5572 5569 5566 5563 5562 5561 5561 5562 5564 5566 5569 5572
5717 5713 5709 5705 5700 5696 5691 5686 5681 5675 5669 5663 5657 5650 5644 5637 5629 5622 5614 5606 5599 5595 5598 5594 5584 5575 5566 5560 5554 5548 5545 5542 5539 5537 5534 5532 5531 5531 5532 5534 5536 5539 5542
5705 5701 5697 5692 5687 5682 5676 5671 5665 5659 5652 5646 5638 5631 5624 5616 5608 5600 5592 5583 5574 5565 5565 5568 5557 5547 5538 5532 5526 5520 5516 5512 5510 5508 5506 5504 5503 5503 5504 5506 5508 5510 5514
5693 5688 5683 5678 5673 5667 5661 5654 5648 5641 5634 5627 5619 5610 5603 5594 5586 5577 5568 5559 5550 5539 5534 5538 5530 5520 5512 5505 5501 5496 5492 5489 5486 5483 5481 5479 5478 5478 5479 5480 5482 5484 5487
5680 5674 5669 5664 5657 5651 5644 5637 5630 5623 5615 5607 5598 5589 5581 5571 5562 5553 5543 5534 5525 5515 5506 5506 5505 5496 5489 5482 5477 5474 5471 5467 5465 5462 5459 5458 5457 5457 5457 5457 5459 5461 5464
5666 5660 5654 5648 5641 5634 5627 5619 5611 5604 5595 5587 5577 5568 5558 5548 5539 5529 5519 5510 5501 5492 5483 5478 5479 5474 5468 5462 5457 5454 5451 5448 5446 5443 5441 5439 5438 5437 5437 5438 5439 5441 5444
5651 5645 5638 5632 5624 5616 5608 5600 5592 5584 5575 5566 5556 5545 5535 5524 5515 5505 5496 5487 5478 5471 5464 5458 5455 5453 5449 5443 5438 5436 5434 5432 5429 5427 5424 5422 5421 5420 5419 5420 5421 5423 5425
5635 5629 5622 5615 5607 5598 5590 5581 5573 5564 5555 5546 5535 5524 5513 5502 5492 5482 5473 5466 5458 5451 5446 5440 5437 5434 5432 5427 5423 5419 5417 5416 5415 5411 5409 5407 5405 5404 5403 5403 5404 5405 5408
5620 5613 5606 5598 5590 5580 5570 5561 5551 5543 5533 5523 5513 5502 5491 5481 5471 5462 5453 5446 5439 5433 5428 5424 5420 5417 5415 5411 5407 5404 5402 5401 5400 5398 5393 5393 5390 5389 5388 5387 5388 5390 5392
5604 5597 5589 5580 5571 5562 5551 5541 5530 5521 5511 5501 5490 5480 5470 5460 5451 5443 5436 5430 5424 5417 5412 5407 5404 5402 5399 5396 5392 5390 5387 5385 5384 5382 5379 5378 5376 5375 5374 5373 5374 5376 5378
5588 5580 5571 5562 5553 5543 5531 5520 5510 5500 5490 5479 5468 5458 5449 5441 5432 5425 5419 5415 5410 5404 5398 5393 5390 5387 5384 5381 5378 5375 5372 5371 5370 5368 5364 5363 5363 5362 5361 5361 5361 5363 5364
5571 5562 5553 5543 5533 5523 5511 5500 5488 5479 5470 5460 5449 5439 5430 5423 5416 5408 5403 5399 5395 5390 5385 5380 5376 5373 5370 5367 5364 5361 5359 5356 5356 5355 5352 5350 5350 5349 5349 5349 5349 5350 5352
5553 5544 5535 5524 5513 5503 5491 5479 5467 5457 5449 5440 5431 5422 5413 5406 5400 5394 5388 5384 5380 5376 5372 5368 5364 5361 5357 5354 5351 5348 5345 5343 5342 5342 5341 5338 5337 5336 5336 5337 5337 5338 5340